User: anonymous   Login
Location: Asheville, NC
(35.6000°N, 82.5500°W)
Time: 21:57:56
(UTC-04:00)
Language:

Oscar 11 - Orbit

View from above orbital plane
View from above orbital plane
View from above satellite
View from above satellite

Ground track
Ground track

The orbit data is extracted from the following two-line orbital elements,

1 14781U 84021B   18115.50702004  .00000088  00000-0  17017-4 0  9996
2 14781  97.6550 153.9532 0007034 252.5139 107.5307 14.82997799836638
Epoch (UTC): 25 April 2018 12:10:06
Eccentricity: 0.0007034
inclination: 97.6550°
perigee height: 615 km
apogee height: 625 km
right ascension of ascending node: 153.9532°
argument of perigee: 252.5139°
revolutions per day: 14.82997799
mean anomaly at epoch: 107.5307°
orbit number at epoch: 83663

The dashed part of the orbit path shows where the satellite is in the earth's shadow,  

DLR